Lid_Strength_Index
1 2 2 2 2 2 2 1 1 1 0 0 0 0 1 1 1 1 1 1 2 1
1 2 2 2 1 1 1 1 1 1 1 0 0 1 1 1 2 1 1 1 1 1
1 1 1 1 2 1 1 1 1 1 1 1 1 1 1 1 1 2 2 1 2 2
1 1 1 1 1 1 1 1 1 1 1 1 1 1 1 2 2 2 2 2 2 2
2 1 1 1 1 1 1 1 1 1 1 1 1 1 2 2 1 2 2 2 2 2
2 2 2 1 1 1 1 1 1 2 2 3 2 2 1 1 2 2 2 2 2 2
3 2 1 1 1 1 1 2 2 2 2 2 2 1 1 1 2 2 2 2 2 2
2 1 1 1 2 1 1 1 1 1 1 1 1 2 2 2 2 2 2 2 2 1
2 2 2 2 1 1 1 1 1 1 1 2 1 3 2 1 2 2 2 2 3 2
2 2 2 2 2 2 2 1 2 1 1 2 4 4 3 2 2 2 2 2 2 2
2 2 2 2 2 2 2 2 2 2 2 3 4 5 5 3 2 2 2 2 2 2
3 2 2 2 2 2 2 2 2 2 2 2 5 7 6 3 2 3 2 2 2 2
5 6 6 3 2 2 2 2 2 2 1 2 4 8 8 5 2 2 2 2 2 2
3 3 4 4 1 2 2 2 2 2 2 1 2 5 9 8 3 2 3 2 2 3